STARLINK-2734 (48657 NORAD) Tracking and Keplerian Element Data

This shows tracking and keplerian element data for the satellite.

Feedback or suggestion? Click here.




ElementValue
Catalog48657
NameSTARLINK-2734
Epoch Orbit1145
Epoch Day215.0929178
Epoch Year2021
RAAN101.6081
Inclination53.0555
Eccentricity0.0001675
Argument of Perigee92.706
Mean Anonmoly267.412
Mean Motion15.06393161
Decay Rate4.42E-06
L11 48657U 21044V 21215.09291780 .00000442 00000-0 48603-4 0 9993
L22 48657 53.0555 101.6081 0001675 92.7060 267.4120 15.06393161 11453

Live tracking and technical data element details for STARLINK-2734 (NORAD 48657). STARLINK-2734 can be tracked NOW for your location showing map with azimuth and elevation plus other details from your city location.

Track the satellite on the map from your city or location and see movement details for azimuth, elevation, latitude, longitude, range, height, and movement on the map or in text.







IsCatalogInMostPopularTable: catalog: 48657, numindb: 15
Update: records affected: 1



GetName: 48657 STARLINK-2734

Hit Count: updated at: Tue, 03 Aug 2021 23:46:04 GMT